Location: Stigler
(35.2540°N, 95.1230°W)
Time: 04:52:54
(UTC-06:00)

Daily predictions for brighter satellites

Satellite Brightness Start Highest point End
(mag) Time Altitude Azimuth Time Altitude Azimuth Time Altitude Azimuth
Cosmos 2219 Rocket 4.5 04:11:11 17° SE 04:11:11 17° SE 04:12:27 10° SE
CZ-3 R/B 4.1 04:30:34 45° WSW 04:33:24 46° SW 04:43:21 10° SSE
Cosmos 2237 Rocket 3.2 04:36:11 43° E 04:36:11 43° E 04:40:54 10° SE
SL-16 R/B 4.4 04:35:44 15° NNE 04:38:27 21° ENE 04:42:38 10° ESE
Cosmos 2297 Rocket 3.3 04:46:57 38° NE 04:46:57 38° NE 04:50:23 10° NNE
Cosmos 2227 Rocket 3.8 05:00:39 23° N 05:00:39 23° N 05:02:46 10° NNE
Cosmos 540 Rocket 4.3 04:58:34 44° NE 04:59:17 48° ENE 05:04:13 10° SE
OAO 2 Rocket 3.8 05:04:02 54° E 05:04:02 54° E 05:07:52 10° E
Cosmos 1725 Rocket 3.9 04:58:50 10° S 05:05:04 86° E 05:11:23 10° N
Cosmos 1864 Rocket 4.4 04:59:27 10° S 05:05:34 85° E 05:11:44 10° N
Meteor 1-21 Rocket 4.1 05:10:32 66° N 05:11:22 86° E 05:16:55 10° S
Cosmos 1674 4.2 05:24:02 28° S 05:24:02 28° S 05:25:57 10° S
Cosmos 1980 3.6 05:22:40 63° WSW 05:22:40 63° WSW 05:28:00 10° S
PSLV R/B 4.4 05:29:54 42° ESE 05:29:54 42° ESE 05:32:34 10° ENE
Cosmos 2333 Rocket 2.8 05:32:19 39° SW 05:32:19 39° SW 05:36:39 10° S
Ariane Rocket 3.7 05:31:19 10° NNE 05:36:19 54° E 05:41:18 10° S
Thor Agena Rocket 4.0 05:32:15 10° S 05:36:33 42° WSW 05:36:33 42° WSW
Cosmos 1461 3.4 05:40:27 43° SSW 05:40:27 43° SSW 05:43:35 10° SSE
Cosmos 1743 Rocket 3.4 05:46:43 31° NNW 05:48:46 69° W 05:53:07 10° S
Cosmos 1328 4.1 05:45:28 11° N 05:49:13 65° E 05:53:10 10° SSE
Cosmos 2219 Rocket 3.8 05:52:59 17° SW 05:52:59 17° SW 05:54:46 10° SSW
Cosmos 2058 4.3 05:50:51 10° N 05:54:44 40° E 05:58:37 10° SSE
Cosmos 1842 Rocket 3.5 05:50:43 10° SSW 05:54:58 59° W 05:59:17 10° N
COSMO-SKYMED 1 2.5 05:51:14 10° S 05:55:31 65° W 05:58:24 20° NNW
Cosmos 2233 Rocket 4.0 05:49:30 10° SSW 05:55:37 60° W 06:01:50 10° N
CZ-2C R/B 3.8 06:01:42 10° NNE 06:05:57 37° E 06:10:11 10° SSE
Cosmos 968 Rocket 3.6 06:01:06 10° SSW 06:06:12 52° WNW 06:11:22 10° N
Cosmos 2227 4.3 06:01:32 10° SSW 06:07:08 80° ESE 06:12:46 10° NNE
Cosmos 2151 2.9 06:08:11 10° N 06:12:24 85° W 06:16:39 10° S
CSL-04 Rocket 3.5 06:07:08 10° N 06:12:27 81° WNW 06:17:42 10° SSW
SMAP 4.4 06:11:12 10° NNE 06:15:37 42° E 06:20:01 10° S
Cosmos 1500 Rocket 3.8 06:11:58 10° NNW 06:16:12 46° W 06:20:28 10° SSW
Cosmos 2237 Rocket 3.4 06:18:05 20° W 06:19:06 21° W 06:23:14 10° SSW
GPS 2-05 Rocket1 2.7 06:17:46 24° WSW 06:19:32 75° S 06:22:53 10° E
YAOGAN 3 4.5 06:16:09 10° N 06:20:31 76° WNW 06:24:51 10° SSW
Cosmos 1703 4.4 06:17:28 10° N 06:21:15 45° E 06:25:01 10° SSE
SL-16 R/B 2.4 06:17:40 12° NNW 06:22:48 49° WSW 06:28:14 10° S
Tiangong 2 3.6 06:20:36 10° SSW 06:23:04 22° SE 06:25:35 10° E
USA 229 DEB 4.1 06:21:03 12° NW 06:27:21 50° WSW 06:34:16 10° S
USA 229 4.1 06:21:07 12° NW 06:27:27 50° WSW 06:34:23 10° S
Cosmos 2297 Rocket 3.6 06:28:51 15° WNW 06:29:19 16° NW 06:32:37 10° NNW
Cosmos 1340 Rocket 2.7 06:27:18 10° NNW 06:31:14 74° W 06:35:10 10° S
Cosmos 2344 4.4 06:24:58 10° S 06:32:29 57° ESE 06:40:25 10° NE
Aureole 2 Rocket 4.1 06:31:11 16° WNW 06:33:09 22° W 06:36:23 10° SSW
SPOT 3 Rocket 4.4 06:28:38 10° NNE 06:33:45 55° E 06:38:51 10° S
Meteor 1-11 4.3 06:29:44 10° NNW 06:35:28 61° W 06:41:10 10° S
Sich 1 4.2 06:31:33 10° N 06:35:45 44° E 06:39:52 10° SSE
Cosmos 1777 Rocket 4.1 06:31:27 10° SSW 06:36:33 53° WNW 06:41:39 10° N
Cosmos 1271 Rocket 3.3 06:33:35 10° SW 06:37:06 33° WNW 06:40:35 10° NNW
SJ-12 3.8 06:33:06 10° N 06:37:11 82° WNW 06:41:15 10° SSW
DELTA 2 R/B (1) 3.7 06:31:44 10° WSW 06:37:17 79° SSE 06:42:52 10° ENE
Cosmos 1184 Rocket 4.0 06:37:50 10° N 06:41:02 44° E 06:44:12 10° SSE
NOSS 3-1 (A) 4.4 06:33:36 10° NNW 06:41:21 70° ENE 06:49:46 10° SE
ISS -3.0 06:38:40 12° NW 06:41:37 64° NE 06:44:49 10° ESE
Meteor 1-28 Rocket 4.3 06:38:34 10° SSW 06:41:41 25° W 06:44:48 10° NW
SL-14 R/B 4.1 06:40:19 10° NNW 06:43:55 31° W 06:47:31 10° SSW
Cosmos 1464 Rocket 4.1 06:38:27 10° SSW 06:44:39 55° W 06:50:50 10° N
Meteor 1-4 Rocket 4.4 06:43:46 10° WSW 06:45:37 13° WNW 06:47:31 10° NW
IRS-1A Rocket 4.4 06:40:31 10° N 06:46:20 63° WNW 06:52:03 10° SSW
IDEFIX/ARIANE 42P 2.6 06:41:28 10° N 06:46:45 78° WNW 06:52:00 10° SSW
OAO 2 Rocket 3.3 06:43:00 11° W 06:47:42 78° S 06:52:40 10° ESE
CZ-3 Stage 3 3.9 06:44:53 10° W 06:49:40 55° S 07:12:39 10° ESE
Cosmos 1484 Rocket 4.0 06:46:29 10° NNE 06:50:23 49° E 06:54:14 10° S
YAOGAN 1 2.5 06:49:13 10° N 06:53:34 81° WNW 06:57:52 10° SSW
CZ-4 R/B 1.7 06:53:24 10° N 06:57:15 44° WNW 07:01:10 10° SW
ERBS 2.5 06:58:15 10° NW 07:01:41 73° NE 07:05:04 10° SE
Meteor 1-29 3.6 06:59:51 10° SSE 07:03:16 61° ENE 07:06:44 10° N
Cosmos 1626 2.2 07:00:03 10° NNW 07:03:45 60° W 07:07:24 10° S
USA 234 3.4 06:59:10 10° SE 07:05:42 81° NE 07:12:18 10° NW
Cosmos 1943 3.9 07:01:04 10° NNW 07:06:42 59° ENE 07:12:18 10° SE
BREEZE-M DEB (TANK) 4.5 06:59:02 10° WNW 07:08:28 29° WSW 07:11:59 10° S
